Flag for Austria Weather past 2 weeks in Hartberg, Styria, Austria

Now
27 °F

Clear.


Feels Like: 27 °F
Forecast: 20 / 39 °F
Wind: 2 mph from North

Location: Graz-Thalerhof-Flughafen

Current Time: Jan 26, 2015 at 11:30:42 PM

Latest Report: Jan 26, 2015 at 10:20 PM


Visibility: 10 mi

Pressure: 30.12 "Hg

Humidity: 86%

Dew point: 23 °F

Location of HartbergLocation

Historic Weather in Hartberg — Graph

°F

Hartberg temperature yesterday

Maximum temperature yesterday: 43 °F (at 11:50 AM)
Minimum temperature yesterday: 30 °F (at 11:20 PM)
Average temperature yesterday: 39 °F

Past Weeks' High & Low Weather Summary

 TemperatureHumidityPressure
High59 °F (Jan 16, 2:20 PM)100% (Jan 12, 11:50 PM)30.27 "Hg (Jan 12, 11:50 PM)
Low21 °F (Jan 26, 7:50 AM)40% (Jan 12, 2:20 PM)29.80 "Hg (Jan 20, 1:50 PM)
Average38 °F78%29.99 "Hg
* Reported Jan 11 9:20 PM — Jan 26 9:50 PM, Hartberg, Weather by CustomWeather, © 2014

Note: Actual official high and low records may vary slightly from our data, if they occured in-between our weather recording intervals... More about our weather records

Advertising

Hartberg weather history for previous 24 hours

 ConditionsComfort  
Time TempWeatherWind HumidityBarometerVisibility
9:50 PM
Jan 26
27 °FClear.2 mph86%30.15 "Hg10 mi
9:20 PM28 °FClear.3 mph86%30.15 "Hg10 mi
8:50 PM27 °FClear.3 mph86%30.15 "Hg10 mi
8:20 PM28 °FPassing clouds.5 mph86%30.15 "HgN/A
7:50 PM28 °FPassing clouds.2 mph86%30.15 "HgN/A
7:20 PM28 °FPassing clouds.1 mph86%30.18 "HgN/A
6:50 PM30 °FPassing clouds.5 mph80%30.18 "HgN/A
4:50 PM32 °FPassing clouds.7 mph75%30.15 "HgN/A
4:20 PM36 °FPassing clouds.8 mph65%30.15 "HgN/A
3:50 PM37 °FPassing clouds.6 mph60%30.15 "HgN/A
3:20 PM39 °FPassing clouds.5 mph52%30.18 "HgN/A
2:50 PM39 °FPassing clouds.5 mph56%30.18 "HgN/A
2:20 PM39 °FPassing clouds.5 mph48%30.18 "HgN/A
1:50 PM39 °FPassing clouds.6 mph52%30.18 "HgN/A
1:20 PM37 °FScattered clouds.5 mph60%30.21 "HgN/A
12:50 PM36 °FScattered clouds.3 mph65%30.21 "HgN/A
12:20 PM36 °FPartly sunny.3 mph65%30.21 "HgN/A
11:50 AM36 °FPartly sunny.2 mph70%30.24 "HgN/A
11:20 AM34 °FPartly sunny.3 mph75%30.24 "HgN/A
10:50 AM34 °FPartly sunny.2 mph75%30.24 "HgN/A
10:20 AM32 °FPartly sunny.1 mph75%30.24 "HgN/A
9:50 AM30 °FPartly sunny.1 mph80%30.24 "HgN/A
9:20 AM28 °FPartly sunny.1 mph86%30.24 "HgN/A
8:50 AM27 °FSunny.1 mph93%30.24 "Hg10 mi
8:20 AM25 °FSunny.1 mph86%30.24 "Hg10 mi
7:50 AM21 °FSunny.1 mph93%30.24 "Hg10 mi
7:20 AM23 °FClear.1 mph93%30.24 "Hg10 mi
6:50 AM23 °FClear.2 mph93%30.24 "Hg10 mi
6:20 AM23 °FClear.2 mph93%30.21 "Hg10 mi
5:50 AM23 °FClear.2 mph80%30.21 "Hg10 mi
5:20 AM23 °FClear.1 mph86%30.21 "Hg10 mi
4:50 AM25 °FClear.2 mph86%30.21 "Hg10 mi
4:20 AM25 °FClear.1 mph86%30.21 "Hg10 mi
3:50 AM27 °FClear.2 mph80%30.21 "Hg10 mi
3:20 AM27 °FChilly.1 mph80%30.21 "HgN/A
2:50 AM27 °FChilly.1 mph80%30.21 "HgN/A
2:20 AM28 °FChilly.1 mph74%30.21 "HgN/A
1:50 AM28 °FPassing clouds.1 mph74%30.21 "HgN/A
1:20 AM32 °FPassing clouds.3 mph69%30.21 "HgN/A
12:50 AM34 °FPassing clouds.3 mph65%30.21 "HgN/A
12:20 AM36 °FPassing clouds.5 mph56%30.21 "HgN/A
11:50 PM
Jan 25
34 °FPassing clouds.3 mph60%30.21 "HgN/A
11:20 PM30 °FPassing clouds.5 mph75%30.21 "HgN/A
Weather by CustomWeather, © 2014

See weather overviewHow to use our weather pages